Flag for U.S.A. Weather past 2 weeks in San Bernardino, California, U.S.A.

Now
53 °F

Overcast.


Feels Like: 53 °F
Forecast: 42 / 56 °F
Wind: 3 mph from East

Location: Riverside Municipal Airport

Current Time: Dec 25, 2014 at 2:17:03 AM

Latest Report: Dec 25, 2014 at 12:53 AM


Visibility: 10 mi

Pressure: 29.77 "Hg

Humidity: 69%

Dew point: 43 °F

Location of San BernardinoLocation

Historic Weather in San Bernardino — Graph

°F

San Bernardino temperature yesterday

Maximum temperature yesterday: 71 °F (at 1:53 PM)
Minimum temperature yesterday: 50 °F (at 11:53 PM)
Average temperature yesterday: 61 °F

Past Weeks' High & Low Weather Summary

 TemperatureHumidityPressure
High80 °F (Dec 23, 12:53 PM)100% (Dec 11, 6:53 AM)30.22 "Hg (Dec 11, 6:53 AM)
Low42 °F (Dec 14, 6:53 AM)17% (Dec 23, 12:53 PM)29.77 "Hg (Dec 25, 12:53 AM)
Average56 °F69%30.03 "Hg
* Reported Dec 10 12:53 AM — Dec 25 12:53 AM, San Bernardino, Weather by CustomWeather, © 2014

Note: Actual official high and low records may vary slightly from our data, if they occured in-between our weather recording intervals... More about our weather records

Advertising

San Bernardino weather history for previous 24 hours

 ConditionsComfort  
Time TempWeatherWind HumidityBarometerVisibility
12:53 AM
Dec 25
53 °FOvercast.3 mph69%29.77 "Hg10 mi
11:53 PM
Dec 24
50 °FClear.No wind71%29.79 "Hg9 mi
10:53 PM54 °FClear.3 mph62%29.80 "Hg10 mi
9:53 PM57 °FClear.5 mph55%29.83 "Hg10 mi
8:53 PM59 °FClear.No wind48%29.83 "Hg10 mi
7:53 PM61 °FClear.3 mph44%29.84 "Hg10 mi
6:53 PM63 °FClear.5 mph41%29.85 "Hg10 mi
5:53 PM66 °FPassing clouds.3 mph37%29.87 "Hg10 mi
4:53 PM68 °FPassing clouds.3 mph32%29.87 "Hg10 mi
3:53 PM69 °FPartly sunny.8 mph31%29.90 "Hg10 mi
2:53 PM70 °FPartly sunny.5 mph30%29.91 "Hg10 mi
1:53 PM71 °FPartly sunny.3 mph28%29.93 "Hg10 mi
12:53 PM70 °FPartly sunny.3 mph26%29.94 "Hg10 mi
11:53 AM69 °FPartly sunny.No wind26%29.99 "Hg10 mi
10:53 AM67 °FPartly sunny.No wind29%30.01 "Hg10 mi
9:53 AM64 °FPartly sunny.3 mph34%30.05 "Hg10 mi
8:53 AM58 °FPartly sunny.5 mph44%30.06 "Hg10 mi
7:53 AM53 °FPartly sunny.5 mph52%30.06 "Hg10 mi
6:53 AM51 °FSunny.No wind54%30.07 "Hg10 mi
5:53 AM52 °FClear.7 mph55%30.06 "Hg10 mi
4:53 AM53 °FClear.3 mph52%30.06 "Hg10 mi
3:53 AM56 °FClear.5 mph46%30.04 "Hg10 mi
2:53 AM56 °FClear.6 mph46%30.04 "Hg10 mi
Weather by CustomWeather, © 2014

See weather overviewHow to use our weather pages